Location: *
(48.8667°N, 2.3331°E)
Time: 23:26:21
(UTC+00:00)

Cosmos 1833 Rocket - Pass Details

Date: 09 April 2020
Orbit: 834 x 838 km, 71.0° (Epoch: 27 May)

Event Time Altitude Azimuth Distance (km) Brightness Sun altitude
Exits shadow 20:39:26 25° 86° (E) 1,618 3.8 -19.3°
Drops below altitude 10° 20:43:05 10° 48° (NE) 2,459 5.0 -19.7°
Sets 20:45:51 0° 37° (NE) 3,398 5.9 -20.1°
